TimeEST,TemperatureF,Dew PointF,Humidity,Sea Level PressureIn,VisibilityMPH,Wind Direction,Wind SpeedMPH,Gust SpeedMPH,PrecipitationIn,Events,Conditions,WindDirDegrees,DateUTC
12:15 AM,41.4,36.1,82,30.40,7.0,Calm,Calm,-,N/A,,Clear,0,2013-01-09 05:15:00
12:55 AM,40.1,34.9,82,30.39,10.0,Calm,Calm,-,N/A,,Clear,0,2013-01-09 05:55:00
1:15 AM,40.1,34.9,82,30.39,10.0,Calm,Calm,-,N/A,,Clear,0,2013-01-09 06:15:00
1:35 AM,40.1,34.9,82,30.38,10.0,Calm,Calm,-,N/A,,Clear,0,2013-01-09 06:35:00
1:55 AM,40.1,34.9,82,30.38,10.0,Calm,Calm,-,N/A,,Clear,0,2013-01-09 06:55:00
2:15 AM,40.1,34.9,82,30.38,10.0,Calm,Calm,-,N/A,,Clear,0,2013-01-09 07:15:00
2:35 AM,38.5,33.3,81,30.38,7.0,Calm,Calm,-,N/A,,Clear,0,2013-01-09 07:35:00
2:55 AM,39.9,34.7,82,30.38,10.0,Calm,Calm,-,N/A,,Clear,0,2013-01-09 07:55:00
3:15 AM,37.9,32.7,81,30.38,10.0,Calm,Calm,-,N/A,,Clear,0,2013-01-09 08:15:00
3:35 AM,40.1,34.9,82,30.39,10.0,Calm,Calm,-,N/A,,Clear,0,2013-01-09 08:35:00
3:55 AM,37.9,32.7,81,30.40,10.0,Calm,Calm,-,N/A,,Clear,0,2013-01-09 08:55:00
4:15 AM,38.5,33.3,81,30.40,10.0,Calm,Calm,-,N/A,,Clear,0,2013-01-09 09:15:00
4:35 AM,38.5,33.3,81,30.40,10.0,Calm,Calm,-,N/A,,Clear,0,2013-01-09 09:35:00
4:55 AM,40.1,34.9,82,30.39,10.0,Calm,Calm,-,N/A,,Scattered Clouds,0,2013-01-09 09:55:00
5:15 AM,39.6,34.5,82,30.38,10.0,Calm,Calm,-,N/A,,Scattered Clouds,0,2013-01-09 10:15:00
5:35 AM,40.1,34.9,82,30.37,7.0,ENE,3.5,-,N/A,,Scattered Clouds,70,2013-01-09 10:35:00
5:55 AM,40.1,34.9,82,30.38,7.0,Calm,Calm,-,N/A,,Clear,0,2013-01-09 10:55:00
6:15 AM,40.1,34.9,82,30.39,7.0,Calm,Calm,-,N/A,,Clear,0,2013-01-09 11:15:00
6:35 AM,40.1,34.9,82,30.41,7.0,Calm,Calm,-,N/A,,Clear,0,2013-01-09 11:35:00
6:55 AM,40.1,34.9,82,30.42,5.0,Calm,Calm,-,N/A,,Haze,0,2013-01-09 11:55:00
7:15 AM,39.6,34.3,82,30.42,5.0,Calm,Calm,-,N/A,,Haze,0,2013-01-09 12:15:00
7:35 AM,40.1,34.9,82,30.43,5.0,Calm,Calm,-,N/A,,Haze,0,2013-01-09 12:35:00
8:15 AM,42.8,37.4,81,30.43,5.0,Calm,Calm,-,N/A,,Haze,0,2013-01-09 13:15:00
8:35 AM,43.5,38.1,81,30.44,10.0,Calm,Calm,-,N/A,,Scattered Clouds,0,2013-01-09 13:35:00
8:55 AM,45.1,39.6,81,30.44,10.0,Calm,Calm,-,N/A,,Clear,0,2013-01-09 13:55:00
9:15 AM,47.3,41.5,80,30.44,10.0,Calm,Calm,-,N/A,,Clear,0,2013-01-09 14:15:00
9:35 AM,50.2,44.6,81,30.44,10.0,Calm,Calm,-,N/A,,Clear,0,2013-01-09 14:35:00
9:55 AM,52.7,46.4,79,30.44,10.0,Calm,Calm,-,N/A,,Clear,0,2013-01-09 14:55:00
10:15 AM,55.4,47.8,76,30.43,10.0,Calm,Calm,-,N/A,,Clear,0,2013-01-09 15:15:00
10:35 AM,58.1,50.0,74,30.42,10.0,Calm,Calm,-,N/A,,Clear,0,2013-01-09 15:35:00
10:55 AM,60.4,52.2,74,30.42,10.0,Calm,Calm,-,N/A,,Clear,0,2013-01-09 15:55:00
11:15 AM,63.0,52.7,69,30.41,10.0,Calm,Calm,-,N/A,,Clear,0,2013-01-09 16:15:00
11:35 AM,63.9,51.8,65,30.40,10.0,Calm,Calm,-,N/A,,Clear,0,2013-01-09 16:35:00
11:55 AM,65.5,52.0,62,30.39,10.0,Calm,Calm,-,N/A,,Clear,0,2013-01-09 16:55:00
12:15 PM,66.7,50.2,55,30.39,10.0,Calm,Calm,-,N/A,,Clear,0,2013-01-09 17:15:00
12:55 PM,69.3,49.1,49,30.38,10.0,Calm,Calm,-,N/A,,Clear,0,2013-01-09 17:55:00
1:15 PM,70.7,48.9,46,30.37,10.0,West,4.6,-,N/A,,Clear,260,2013-01-09 18:15:00
1:35 PM,70.7,46.8,42,30.36,10.0,SW,4.6,-,N/A,,Clear,230,2013-01-09 18:35:00
1:55 PM,73.0,48.4,42,30.36,10.0,SSW,5.8,-,N/A,,Clear,210,2013-01-09 18:55:00
2:15 PM,73.0,46.9,39,30.36,10.0,SW,6.9,-,N/A,,Clear,220,2013-01-09 19:15:00
2:35 PM,73.0,48.7,42,30.36,10.0,SW,5.8,-,N/A,,Clear,220,2013-01-09 19:35:00
2:55 PM,73.0,49.3,43,30.37,10.0,WSW,6.9,-,N/A,,Clear,240,2013-01-09 19:55:00
3:15 PM,73.0,48.0,41,30.36,10.0,WSW,5.8,-,N/A,,Clear,250,2013-01-09 20:15:00
3:35 PM,70.7,47.7,44,30.37,10.0,West,3.5,-,N/A,,Clear,280,2013-01-09 20:35:00
3:55 PM,68.0,46.6,46,30.37,10.0,West,3.5,-,N/A,,Clear,270,2013-01-09 20:55:00
4:15 PM,66.4,46.9,50,30.37,10.0,Calm,Calm,-,N/A,,Clear,0,2013-01-09 21:15:00
4:35 PM,64.4,49.6,59,30.37,10.0,Calm,Calm,-,N/A,,Clear,0,2013-01-09 21:35:00
4:55 PM,64.2,51.4,63,30.37,10.0,Calm,Calm,-,N/A,,Clear,0,2013-01-09 21:55:00
5:15 PM,63.0,52.5,69,30.37,10.0,Calm,Calm,-,N/A,,Clear,0,2013-01-09 22:15:00
5:35 PM,62.4,53.2,72,30.38,10.0,Calm,Calm,-,N/A,,Clear,0,2013-01-09 22:35:00
5:55 PM,60.4,52.5,75,30.39,10.0,Calm,Calm,-,N/A,,Clear,0,2013-01-09 22:55:00
6:15 PM,60.4,52.9,76,30.39,10.0,Calm,Calm,-,N/A,,Clear,0,2013-01-09 23:15:00
6:35 PM,59.2,51.1,74,30.39,10.0,Calm,Calm,-,N/A,,Clear,0,2013-01-09 23:35:00
6:55 PM,58.1,50.5,76,30.39,10.0,Calm,Calm,-,N/A,,Clear,0,2013-01-09 23:55:00
7:15 PM,58.1,50.9,77,30.38,10.0,Calm,Calm,-,N/A,,Clear,0,2013-01-10 00:15:00
7:35 PM,58.1,51.3,78,30.37,10.0,South,3.5,-,N/A,,Clear,180,2013-01-10 00:35:00
7:55 PM,60.4,53.1,77,30.36,10.0,South,5.8,-,N/A,,Clear,180,2013-01-10 00:55:00
8:15 PM,60.4,52.7,76,30.36,10.0,SSW,3.5,-,N/A,,Clear,200,2013-01-10 01:15:00
8:35 PM,58.1,51.6,79,30.38,10.0,North,4.6,-,N/A,,Clear,350,2013-01-10 01:35:00
8:55 PM,58.1,51.8,80,30.38,10.0,Calm,Calm,-,N/A,,Clear,0,2013-01-10 01:55:00
9:15 PM,56.8,50.7,80,30.38,10.0,Calm,Calm,-,N/A,,Clear,0,2013-01-10 02:15:00
9:35 PM,55.0,49.1,80,30.37,10.0,Calm,Calm,-,N/A,,Clear,0,2013-01-10 02:35:00
9:55 PM,53.8,48.0,81,30.38,10.0,Calm,Calm,-,N/A,,Clear,0,2013-01-10 02:55:00
10:15 PM,52.7,47.3,82,30.39,10.0,Calm,Calm,-,N/A,,Clear,0,2013-01-10 03:15:00
10:35 PM,52.7,47.3,82,30.39,10.0,Calm,Calm,-,N/A,,Clear,0,2013-01-10 03:35:00
10:55 PM,52.7,47.3,82,30.40,7.0,Calm,Calm,-,N/A,,Clear,0,2013-01-10 03:55:00
11:15 PM,52.7,47.3,82,30.40,5.0,Calm,Calm,-,N/A,,Haze,0,2013-01-10 04:15:00
11:35 PM,52.7,47.3,82,30.41,7.0,Calm,Calm,-,N/A,,Clear,0,2013-01-10 04:35:00
11:55 PM,52.5,47.1,82,30.40,1.0,Calm,Calm,-,N/A,,Haze,0,2013-01-10 04:55:00